Location: Charlotte
(35.2270°N, 80.8430°W)
Time: 15:35:53
(UTC-05:00)

Daily predictions for brighter satellites

Satellite Brightness Start Highest point End
(mag) Time Altitude Azimuth Time Altitude Azimuth Time Altitude Azimuth
Cosmos 2181 Rocket 4.3 18:31:51 10° N 18:37:56 49° E 18:44:04 10° SSE
Okean 1 Rocket 3.5 18:35:44 10° SSE 18:39:57 42° E 18:44:11 10° NNE
Genesis I 4.1 18:37:22 10° N 18:40:53 30° NE 18:44:21 10° ESE
Cosmos 1238 Rocket 2.7 18:39:07 10° NNE 18:41:54 36° E 18:44:49 10° SSE
Cosmos 1709 Rocket 4.0 18:35:45 10° S 18:41:58 80° E 18:48:08 10° N
METEOR-M 4.3 18:39:03 10° SSE 18:44:12 51° ENE 18:49:22 10° N
Cosmos 1484 Rocket 4.1 18:43:07 10° S 18:46:56 47° W 18:50:43 10° NNW
ASTRO F (AKARI) 4.4 18:44:32 10° NNE 18:47:59 89° ESE 18:51:14 10° SSW
OTV 4 1.3 18:45:56 10° SW 18:48:42 35° SSE 18:51:22 11° E
Cosmos 1025 Rocket 4.2 18:46:11 10° NNE 18:49:40 23° ENE 18:53:08 10° SE
Cosmos 2322 3.7 18:53:03 10° NNW 18:58:48 79° ENE 19:04:28 10° SSE
DELTA 2 R/B (1) 3.9 18:53:27 10° WNW 18:59:01 67° SSW 19:04:34 10° SE
Hubble Space Telescope 2.3 18:56:55 10° SW 19:00:20 25° S 19:03:33 11° ESE
BREEZE-M DEB (TANK) 2.7 18:57:23 10° SW 19:02:55 81° NW 19:05:20 11° NE
Cosmos 1850 Rocket 4.1 18:59:02 10° SSW 19:04:20 87° WNW 19:09:42 10° NNE
SJ-6B 2.8 19:03:45 10° SSE 19:07:41 62° ENE 19:11:34 10° N
CZ-3C R/B 3.4 19:00:16 10° WSW 19:08:22 20° SSW 19:11:42 10° SSE
Cosmos 2208 Rocket 4.2 19:03:09 10° N 19:08:29 53° ENE 19:13:43 10° SSE
Meteor 1-19 Rocket 4.3 19:03:32 10° N 19:09:17 86° E 19:15:05 10° S
ALOS 2.5 19:06:51 10° SSE 19:11:19 47° ENE 19:15:48 10° N
Cosmos 2297 Rocket 3.4 19:08:36 10° SE 19:12:25 19° E 19:14:23 16° ENE
Cosmos 405 Rocket 4.1 19:09:27 10° NNE 19:12:26 19° ENE 19:13:11 19° E
HJ-1C 3.8 19:09:25 10° SE 19:12:35 40° ENE 19:15:46 10° N
Cosmos 2237 Rocket 3.6 19:09:23 10° NNE 19:13:06 17° NE 19:14:36 16° ENE
H-2A R/B 3.6 19:11:19 10° SE 19:14:30 28° ENE 19:17:43 10° NNE
CZ-2D R/B 4.5 19:14:14 19° E 19:15:15 21° ENE 19:18:12 10° NNE
Cosmos 2333 4.5 19:10:11 10° N 19:15:44 48° ENE 19:21:17 10° SE
Cosmos 2237 4.2 19:11:43 10° NNW 19:17:28 75° ENE 19:23:09 10° SSE
COSMOS 2428 2.8 19:11:59 10° NNW 19:17:36 57° ENE 19:23:11 10° SE
Okean 1-7 Rocket 3.5 19:16:02 10° N 19:20:33 72° E 19:24:59 10° SSE
Meteor 2-4 Rocket 3.5 19:17:48 10° N 19:23:18 80° E 19:28:40 10° S
Cosmos 2285 Rocket 4.2 19:18:20 10° N 19:24:34 49° ENE 19:30:42 10° SE
Cosmos 2219 Rocket 2.7 19:20:34 10° N 19:25:43 36° ENE 19:28:57 20° ESE
Cosmos 2360 Rocket 3.1 19:20:23 10° NNW 19:25:51 52° WSW 19:31:19 10° S
Meteor 1-23 Rocket 4.2 19:23:17 10° N 19:29:05 73° E 19:34:46 10° SSE
Okean 2 3.7 19:26:09 10° N 19:30:08 42° E 19:34:06 10° SSE
Cosmos 2219 3.8 19:24:59 10° SSW 19:30:39 60° WNW 19:36:21 10° NNE
OAO 3 Rocket 4.0 19:26:50 10° SW 19:31:23 37° SSE 19:33:19 26° ESE
FREGAT/IRIS 3.8 19:28:32 10° S 19:31:30 46° W 19:34:30 10° NNW
Cosmos 2227 Rocket 2.6 19:27:24 10° S 19:32:37 39° ESE 19:37:51 10° NE
Atlas Centaur 2 3.7 19:26:51 10° SSW 19:32:56 26° SSE 19:35:47 20° ESE
Helios 1A 3.8 19:33:28 29° ENE 19:33:28 29° ENE 19:37:01 10° NNE
Abrixas rocket 4.4 19:32:27 10° WNW 19:35:09 22° NNW 19:37:11 13° NNE
Helios 1B rocket 2.9 19:33:08 10° NNE 19:37:01 38° E 19:40:53 10° SSE
Cosmos 1536 4.2 19:34:20 10° SSW 19:38:06 41° W 19:41:53 10° N
SAR-Lupe-4 4.3 19:44:54 36° NE 19:44:54 36° NE 19:47:31 10° N
Cosmos 1455 Rocket 3.3 19:40:45 10° SSE 19:44:54 43° E 19:49:03 10° NNE
SL-16 R/B 4.1 19:45:43 10° NNE 19:47:23 13° NE 19:47:23 13° NE
Resurs 01 Rocket 1.9 19:53:39 10° S 19:58:01 68° WSW 20:02:25 10° NNW
ATLAS 2A CENTAUR R/B 3.9 20:05:04 10° SW 20:08:14 22° S 20:10:06 20° SSE
Resurs 1-3 4.0 20:04:07 10° S 20:08:26 62° W 20:12:47 10° NNW
Cosmos 2333 Rocket 2.1 20:06:01 10° NNW 20:11:47 73° ENE 20:12:59 55° SE
Cosmos 1980 3.7 20:07:13 10° NNW 20:12:47 58° ENE 20:12:50 58° ENE
GEOS 3 Rocket 4.2 20:08:20 11° NNE 20:13:17 56° NW 20:18:27 10° SW
GPS 2-04 Rocket1 3.0 20:10:17 10° W 20:14:12 73° WNW 20:14:12 73° WNW
OTV 4 3.4 20:21:45 10° W 20:22:38 18° W 20:22:38 18° W
Cosmos 1892 Rocket 4.2 20:20:45 10° NNW 20:25:00 53° W 20:26:07 41° SW
Cosmos 468 Rocket 4.2 20:22:36 10° NNW 20:27:50 69° WSW 20:28:51 55° SSW
USA 229 DEB 4.2 20:24:21 10° NW 20:31:23 61° WSW 20:35:24 27° S
USA 229 4.2 20:24:26 10° NW 20:31:29 61° WSW 20:35:25 28° S
Cosmos 2082 4.0 20:29:09 10° SSW 20:34:49 66° WNW 20:37:59 27° N
Hubble Space Telescope 3.1 20:37:28 10° WSW 20:38:56 19° SW 20:38:56 19° SW
NOSS 3-1 (A) 4.1 20:36:40 10° NNW 20:44:07 59° NE 20:44:07 59° NE
Envisat 4.3 20:47:02 31° NNW 20:47:02 31° NNW 20:49:40 10° NNW
ATLAS 2AS CENTAUR R/B 4.5 20:43:29 10° N 20:48:06 21° NNE 20:48:06 21° NNE
Cosmos 2297 Rocket 2.9 20:50:31 10° SW 20:55:59 50° WNW 20:56:25 49° NW
Cosmos 2237 Rocket 2.9 20:51:57 10° NNW 20:56:29 51° WNW 20:56:29 51° WNW
NOSS 3-1 (C) 4.0 20:54:22 10° NNW 21:02:12 87° WSW 21:02:16 87° SW
H-2A R/B 3.9 21:02:59 10° SW 21:42:30 14° E 21:56:58 10° E
H-2A R/B 3.9 21:02:59 10° SW 21:42:31 14° E 21:56:58 10° E
H-2A R/B 3.9 21:02:58 10° SW 21:42:31 14° E 21:56:58 10° E
H-2A R/B 3.9 21:02:58 10° SW 21:42:32 14° E 21:56:58 10° E
H-2A R/B 3.9 21:02:59 10° SW 21:42:32 14° E 21:56:58 10° E
H-2A R/B 3.9 21:02:58 10° SW 21:42:31 14° E 21:56:59 10° E
Cosmos 2219 Rocket 4.0 21:04:51 10° NW 21:09:25 26° WSW 21:10:47 24° SW
Cosmos 2227 Rocket 4.1 21:12:08 10° WSW 21:16:45 25° WNW 21:20:36 13° N
Atlas Centaur 2 4.1 21:15:26 10° WSW 21:18:27 25° SW 21:18:27 25° SW
SL-16 R/B 4.4 21:27:50 10° NNW 21:29:17 18° NNW 21:29:17 18° NNW
